Showing default

COSMOS 2490, 39485

Orbit data source: Space-Track

COSMOS 2490, 39485 is a payload satellite owned by VVKO (CIS) in LEO that was launched on Wed, 25 Dec 2013 UTC via an ROKOT launch vehicle from the Plesetsk Missile And Space Complex (PKMTR). Payload-class satellites include a variety of spacecraft equipped with specific instruments for various scientific and technological missions. These include communications satellites like Starlink; space stations such as the ISS; scientific satellites like the Hubble; Earth observation satellites from companies like Planet Labs, Umbra, and HawkEye 360; GPS; miniature CubeSats for education and research; and military/defense satellites.

Loading next visibility...
Identifier
39485, 2013-076C
Orbit
LEO
Country
Flag of CISCIS
Related business
Manufacturer
Resehetnev ISS
Mission
Operational Civil Communications
Bus & Motor
STRELA-3M, Unknown motor
Mass
280 kg wet, 280 kg dry
Launch date (UTC)
2013-12-25 (13 years ago)
Launch vehicle
ROKOT
Launch site
Plesetsk Missile And Space Complex (PKMTR)
Object type
Payload
Rocket body
Debris
Shape & HBR
Cyl + 1 Ant, 3.5 m
Radar Cross Section
1.583 m², Large (>1 m²)

Expand to show TLE details & history
Last TLE update: 7 hours ago

TLE from 7 hours ago
0 COSMOS 2490
1 39485U 13076C   26255.96861479  .00000100  00000-0  65279-3 0  9999
2 39485  82.4799 113.4436 0020696 282.3092  77.5671 12.42880918576780
Epoch: 2026-09-12T23:14Z
TLE epoch observation values (Epoch: 2026-09-12T23:14:48.317Z)
Latitude
Longitude
132.77228°
Altitude
1,493.637 km
Speed
7.119 km/s
True Right ascension
07h 33m 46s
True Declination
0° 00' 00"
Sunlit
Object was in daylight at epoch
Visualization orbit readout
Latitude
Unknown
Longitude
Unknown
Altitude
Unknown
Speed
Unknown
Apparent Right ascension
Unknown
Apparent Declination
Unknown
Sunlit
N/A
Visualization observer readout
Local Sidereal Time
22:28:11
Azimuth
Unknown
Elevation
Unknown
Doppler factor
Unknown
Orbital elements
Apogee altitude
1,508.054 km
Perigee altitude
1,475.479 km
Semi-major axis
7,869.903 km
Eccentricity
0.00207
Inclination
82.4799°
RAAN
113.4436°
Arg. of periapsis
282.3092°
True anomaly
77.79883°
Mean anomaly
77.5671°
Eccentric anomaly
77.68295°
Mean motion
3.10877 °/min
Orbital period
115.8 mins
BSTAR
0.00065279
Loading maneuver chart data...
Computing Atmospheric mass density...
Loading historical data...
Loading historical data...
Loading historical data...
Loading historical data...
Loading historical data...
Loading historical data...
Loading historical data...

Documentation

Showing up to 5 results
|